ソーホー彗星

321P/SOHO (2016)

English version
Home page
Updated on March 21, 2016

---------------------------------------------------------------------

・ プロフィール

・ 軌道要素

Epoch 2016 Apr. 2.0 TT = JDT 2457480.5
T 2016 Apr. 10.37923 TT                                 MPCW
q   0.0455793            (2000.0)            P               Q
n   0.26143177     Peri.  172.55983     +0.92748896     +0.36326073
a   2.4223142      Node   165.17661     -0.35832629     +0.93118837
e   0.9811836      Incl.   20.20228     -0.10661376     +0.03049367
P   3.77
From 90 observations 1997 May 1-2012 June 30.  Nongravitational parameters
     A1 = +0.00, A2 = -0.0002.

・ 星図

・ 光度変化

        m1 = 20 + 5 logΔ + 10 log r

---------------------------------------------------------------------

軌道要素はM.P.E.C. 2015-K01に掲載されたものです。
星図はステラナビゲータ Ver.10 (アストロアーツ) で作成したものです。
光度グラフはComet for Windowsで作成したものです。

---------------------------------------------------------------------

Copyright(C) Seiichi Yoshida (comet@aerith.net). All rights reserved.